Preview of NWS' New Version of Forecast
This preview is not operational and should not be used for support decisions.
Latest weather observations around

Huntsville, Huntsville International / Jones Field (KHSV)

Using English Units (Switch to International System of Units)
Date/ Time (CDT) Wind (mph) Vis. (mi) Weather Sky Cond. Temp (°F) Rel. Humidity Wind Chill (°F) Heat Index (°F) Pressure Precip. (in)
Air Dwpt 6 hour Altimeter (inHg) Sea level (inHg) 1 hr 3 hr 6 hr
Max Min
Aug 25 23:53 SSE 8 6 Light Rain and Fog/Mist FEW060 SCT100 BKN120 72 71     97%   73 30 29.98 0    
Aug 25 23:20 SE 9 6 Light Rain and Fog/Mist SCT018 SCT075 OVC110 72 71     97%   73 30   0    
Aug 25 22:53 SE 8 10 Light Rain OVC018 72 71     97%   73 30.01 29.99 0    
Aug 25 22:35 SSE 7 10 Light Rain BKN020 BKN033 OVC110 72 71     97%   73 30.01   0    
Aug 25 22:27 SE 7 10 Light Rain SCT020 BKN041 OVC110 72 71     97%   73 30.01   0    
Aug 25 21:53 SSE 7 10 Cloudy FEW009 OVC029 72 71     97%   73 30 29.98 0 0  
Aug 25 21:25 SE 10 10 Light Rain FEW009 OVC028 72 71     97%   73 30   0    
Aug 25 20:53 SE 10 10 Light Rain FEW038 BKN070 OVC100 73 71     94%   74 29.99 29.96 0    
Aug 25 20:18 ESE 8 10 Light Rain SCT020 BKN038 OVC045 74 70     87%   75 29.98   0    
Aug 25 19:53 SE 9 10 Light Rain OVC020 74 70     87%   75 29.97 29.95 0    
Aug 25 18:53 ESE 7 10 Cloudy OVC020 75 70     84%   76 29.97 29.95      
Aug 25 17:53 ESE 10 10 Cloudy OVC021 76 70     82%   77 29.97 29.94      
Aug 25 16:53 ESE 11 10 Cloudy OVC020 76 70     82%   77 29.97 29.95      
Aug 25 15:53   10 Cloudy OVC019 78 70     76%   79 29.97 29.95      
Aug 25 14:53 ESE 13 10 Mostly Cloudy BKN018 79 70     74%   82 29.97 29.95      
Aug 25 13:53 SE 13 10 Cloudy BKN018 OVC028 78 71     79%   79 30 29.98      
Aug 25 12:53 ESE 11 10 Cloudy OVC015 76 70     82%   77 30.03 30.01     0
Aug 25 11:53 SE 11 10 Cloudy OVC015 76 70     82%   77 30.04 30.02      
Aug 25 10:53 ESE 10 10 Cloudy OVC011 74 70     87%   75 30.05 30.03      
Aug 25 09:53 ESE 11 10 Cloudy OVC010 73 70     90%   74 30.05 30.03 0 0  
Aug 25 09:08 SE 11 10 Cloudy BKN008 OVC014 73 71     94%   74 30.04   0    
Aug 25 08:53   10 Light Drizzle OVC012 73 71     94%   74 30.04 30.01 0    
Aug 25 08:38   10 Cloudy BKN010 OVC016 73 72     96%   75 30.03   0    
Aug 25 08:13   10 Light Rain BKN008 BKN018 OVC024 74 72     94%   75 30.03   0    
Aug 25 07:53 ESE 9 10 Light Rain BKN018 OVC026 75 73     94%   77 30.03 30 0    
Aug 25 06:53 SE 5 10 Light Rain BKN018 OVC150 74 73     97%   76 30.02 29.99 0   0
Aug 25 05:53 SE 5 10 Cloudy BKN050 BKN065 OVC150 73 72     96%   75 30 29.98 0    
Aug 25 04:53 ESE 7 10 Clear CLR 73 72     96%   75 29.99 29.96      
Aug 25 03:53 ESE 6 10 Clear CLR 73 72     96%   75 29.99 29.96      
Aug 25 02:53 ESE 7 10 Clear CLR 73 72     96%   75 29.99 29.96      
Aug 25 01:53 E 5 10 Clear CLR 73 71     94%   74 30 29.97      
Aug 25 00:53 Calm 10 Clear CLR 72 72     100%   74 30.02 29.99     0
Aug 24 23:53 WSW 3 10 Cloudy FEW044 OVC200 72 72     100%   74 30.02 29.99 0    
Aug 24 22:53 Calm 10 Cloudy FEW042 FEW070 SCT090 OVC250 72 72     100%   74 30.03 30.01 0    
Aug 24 21:53 Calm 10 Light Rain SCT065 SCT090 BKN110 72 72     100%   74 30.04 30.02 0 0  
Aug 24 21:28 SSW 11 8 Light Rain BKN031 BKN060 OVC085 72 68     87%   73 30.04   0    
Aug 24 21:00   10 Cloudy SCT023 BKN031 OVC043 77 67     71%   78 30.04        
Aug 24 20:53 S 10 10 Cloudy SCT023 BKN029 BKN043 OVC250 76 67     74%   77 30.04 30.01      
Aug 24 20:28 N 5 10 Cloudy SCT050 SCT100 OVC250 82 73     74%   87 30.02        
Aug 24 19:53 N 8 10 Cloudy SCT055 OVC250 83 73     72%   89 30 29.98      
Aug 24 18:53 N 6 10 Mostly Cloudy SCT050 SCT070 BKN250 85 72     65%   91 29.98 29.96      
Aug 24 17:53 N 6 10 Mostly Cloudy SCT050 SCT070 BKN250 87 71     59%   93 29.97 29.95      
Aug 24 16:53 NNE 8 10 Mostly Cloudy FEW045 SCT070 BKN250 89 69     52%   94 29.96 29.93      
Aug 24 15:53 NNW 8 10 Partly Cloudy SCT043 SCT250 90 71     54%   96 29.96 29.93      
Aug 24 14:53 Calm 10 Partly Cloudy SCT035 SCT250 92 71     51%   99 29.98 29.95      
Aug 24 13:53 5 10 Mostly Cloudy SCT033 SCT049 BKN250 90 72     56%   97 30.01 29.98      
Aug 24 12:53 5 10 Mostly Cloudy BKN030 BKN250 89 72     57%   96 30.03 30.01      
Aug 24 11:53 NNW 5 10 Mostly Cloudy SCT023 BKN250 85 73     68%   92 30.04 30.02      
Aug 24 10:53 WNW 3 10 Mostly Cloudy BKN017 BKN250 83 73     72%   89 30.06 30.03      
Aug 24 10:30 NE 5 10 Mostly Cloudy BKN015 BKN250 84 74     72%   91 30.06        
Aug 24 09:53 Calm 10 Cloudy OVC011 79 73     82%   82 30.07 30.05      
Aug 24 09:49 Calm 10 Cloudy OVC011 79 73     84%   82 30.07        
Aug 24 08:53 ENE 5 10 Cloudy OVC007 77 73     88%   79 30.07 30.04      
Aug 24 07:53 Calm 5 Fog/Mist OVC004 75 73     94%   77 30.07 30.04      
Aug 24 07:16 Calm 4 Fog/Mist OVC004 74 72     94%   75 30.07        
Aug 24 06:53 NNE 3 10 Cloudy BKN006 OVC250 73 71     94%   74 30.06 30.03      
Aug 24 05:53 Calm 10 Partly Cloudy SCT007 SCT200 71 70     96%   72 30.04 30.01      
Aug 24 04:53 W 3 9 Cloudy OVC006 71 71     100%   73 30.03 30.01      
Aug 24 04:38 Calm 8 Cloudy OVC006 71 71     100%   73 30.03        
Aug 24 04:23 W 3 2 Fog/Mist BKN006 71 71     100%   73 30.03        
Aug 24 03:53 Calm 8 Mostly Clear FEW007 71 71     100%   73 30.03 30      
Aug 24 02:53 WSW 3 9 Clear CLR 72 71     97%   73 30.02 29.99      
Aug 24 01:53 Calm 10 Clear CLR 72 71     97%   73 30.01 29.98      
Aug 24 00:53 NNW 3 10 Clear CLR 73 72     96%   75 30.03 30.01      
Aug 23 23:53 Calm 10 Partly Cloudy SCT170 74 72     94%   75 30.03 30      
Aug 23 22:53 NNE 3 10 Partly Cloudy SCT170 76 73     91%   77 30.02 29.99      
Aug 23 21:53 Calm 10 Partly Cloudy SCT170 76 73     91%   77 30.02 29.99      
Aug 23 20:53 Calm 10 Mostly Cloudy FEW026 BKN150 78 73     85%   80 30.01 29.98      
Aug 23 19:53 SSE 5 10 Mostly Cloudy FEW044 SCT150 BKN250 78 74     87%   80 29.98 29.96      
Aug 23 18:53 Calm 10 Mostly Cloudy SCT024 SCT050 BKN090 81 70     69%   84 29.99 29.96      
Aug 23 17:53 6 10 Mostly Cloudy BKN041 BKN055 83 73     72%   89 30.01 29.99      
Aug 23 17:27 WSW 10 10 Mostly Cloudy SCT049 BKN150 84 73     70%   90 30.01        
Aug 23 17:12 WSW 8 10 Mostly Cloudy SCT048 BKN150 85 73     68%   92 29.99        
Aug 23 16:53 SW 9 10 Mostly Cloudy SCT048 BKN150 86 73     65%   93 29.99 29.96      
Aug 23 15:53 SW 11 10 Mostly Cloudy SCT049 BKN120 87 73     63%   95 29.96 29.93      
Aug 23 15:22 S 14 10 Mostly Cloudy BKN047 87 73     63%   95 29.97        
Aug 23 14:53 W 9 10 Mostly Cloudy FEW047 SCT060 BKN120 91 70     50%   97 29.99 29.96      
Aug 23 13:53 WNW 9 10 Partly Cloudy SCT047 SCT060 90 70     52%   95 30 29.98      
Aug 23 12:53 NW 7 10 Mostly Cloudy BKN041 90 70     52%   95 30 29.97      
Aug 23 11:53 WSW 6 10 Partly Cloudy SCT031 SCT039 SCT250 87 71     59%   93 30.02 30      
Aug 23 10:53 5 10 Mostly Cloudy FEW028 BKN035 BKN250 87 71     59%   93 30.06 30.03      
Aug 23 09:53 WSW 8 10 Partly Cloudy SCT023 SCT250 84 72     67%   90 30.06 30.03      
Aug 23 08:53 SW 3 10 Mostly Cloudy FEW018 BKN250 81 73     77%   86 30.06 30.03      
Aug 23 07:53 S 3 10 Mostly Clear FEW250 77 74     90%   79 30.05 30.02      
Aug 23 06:53 SSE 5 9 Mostly Clear FEW250 73 72     96%   75 30.04 30.01      
Aug 23 05:53 Calm 10 Partly Cloudy FEW040 SCT250 72 71     97%   73 30.03 30      
Aug 23 04:53 Calm 10 Clear CLR 73 71     94%   74 30.01 29.99      
Aug 23 03:53 ESE 3 10 Clear CLR 72 71     97%   73 29.98 29.96      
Aug 23 02:53 SE 3 10 Clear CLR 73 71     94%   74 30 29.97      
Aug 23 01:53 S 3 10 Clear CLR 74 72     94%   75 30.01 29.98      
Aug 23 00:53 SSE 3 10 Clear CLR 74 72     94%   75 30.01 29.99      
Aug 22 23:53 S 3 10 Clear CLR 74 72     94%   75 30.01 29.98      
Aug 22 22:53 SW 3 10 Clear CLR 76 72     88%   77 30.02 29.99      
May 15 04:53 Calm 10 Mostly Cloudy BKN065 70 68     93%     29.98 29.96      
May 14 10:53 N 8 10 Mostly Clear FEW050 88 64     45%   89 30.07 30.04      
May 11 20:53 S 8 10 Clear CLR 75 60     60%   75 30.05 30.03      
May 11 16:53 SW 11 10 Mostly Clear FEW090 89 57     34%   88 30.04 30.01      
Jun 12 04:53 SE 7 10 Partly Cloudy SCT025 72 70     93%   73 30.13 30.1      
Jun 11 22:53 ESE 3 10 Clear CLR 78 70     76%   79 30.12 30.09      
Jun 10 17:53 S 10 10 Partly Cloudy FEW060 SCT 85 61     45%   85 30.03 30.01      
Jun 09 19:53 W 3 10 Mostly Clear FEW080 77 60     56%   77   29.92      
Jun 08 19:53 NNW 6 10 Partly Cloudy SCT250 73 56     55%   73 29.89 29.87      
Jun 07 10:53 NE 17 10 Mostly Clear FEW050 FEW250 78 53     42%   78 29.89 29.87